Location: Aciu?a
(46.2833°N, 22.4500°E)
Time: 05:08:20
(UTC+00:00)

Cosmos 2123 Rocket - Pass Details

Date: 25 October 2021
Orbit: 961 x 992 km, 82.9° (Epoch: 04 December)

Event Time Altitude Azimuth Distance (km) Brightness Sun altitude
Rises 16:33:54 0° 350° (N) 3,718 7.1 -12.3°
Reaches altitude 10° 16:36:26 10° 350° (N) 2,763 6.4 -12.7°
Maximum altitude 16:42:47 82° 264° (W) 1,001 4.1 -13.8°
Drops below altitude 10° 16:49:03 10° 177° (S) 2,727 6.3 -14.9°
Sets 16:51:32 0° 177° (S) 3,667 7.0 -15.3°
